Tracking 30685 objects as of 17-Jun-2025
HD Live streaming from Space Station
objects crossing your sky now

NOAA 16 DEB

Track NOAA 16 DEB now!
10-day predictions


NORAD ID: 41203
Int'l Code: 2000-055DG
Perigee: 813.8 km
Apogee: 865.2 km
Inclination: 98.7 °
Period: 101.6 minutes
Semi major axis: 7210 km
RCS: Unknown
Launch date: September 21, 2000
Source: United States (US)
Launch site: AIR FORCE WESTERN TEST RANGE (AFWTR)

Note: This is SATELLITE DEBRIS
Your satellite tracking list
Your tracking list is empty




NASA's NSSDC Master Catalog

Two Line Element Set (TLE):
1 41203U 00055DG  25168.07978318  .00002201  00000-0  10906-2 0  9998
2 41203  98.7044 213.0906 0035661  99.0823 261.4390 14.17922117490022
Source of the keplerian elements: AFSPC